Time,TemperatureF,DewpointF,PressureIn,WindDirection,WindDirectionDegrees,WindSpeedMPH,WindSpeedGustMPH,Humidity,HourlyPrecipIn,Conditions,Clouds,dailyrainin,SolarRadiationWatts/m^2,SoftwareType,DateUTC
2013-02-08 00:01:00,44.0,35.0,-100.00,SE,137,3.0,12.0,70,0.00,,,0.02,0.000000,,2013-02-08 08:01:00,
2013-02-08 00:11:00,44.0,35.0,-100.00,SE,137,3.0,12.0,70,0.00,,,0.02,0.000000,,2013-02-08 08:11:00,
2013-02-08 00:32:00,42.0,35.0,-100.00,East,95,3.0,7.0,75,0.00,,,0.02,0.000000,,2013-02-08 08:32:00,
2013-02-08 00:42:00,42.0,35.0,-100.00,East,95,3.0,7.0,75,0.00,,,0.02,0.000000,,2013-02-08 08:42:00,
2013-02-08 00:52:00,42.0,35.0,-100.00,East,95,3.0,7.0,75,0.00,,,0.02,0.000000,,2013-02-08 08:52:00,
2013-02-08 01:02:00,42.0,35.0,-100.00,East,95,3.0,7.0,75,0.00,,,0.02,0.000000,,2013-02-08 09:02:00,
2013-02-08 01:11:00,42.0,35.0,-100.00,East,95,3.0,7.0,75,0.00,,,0.02,0.000000,,2013-02-08 09:11:00,
2013-02-08 01:32:00,41.0,34.0,-100.00,ESE,103,5.0,7.0,77,0.00,,,0.02,0.000000,,2013-02-08 09:32:00,
2013-02-08 01:42:00,41.0,34.0,-100.00,ESE,103,5.0,7.0,77,0.00,,,0.02,0.000000,,2013-02-08 09:42:00,
2013-02-08 01:52:00,41.0,34.0,-100.00,ESE,103,5.0,7.0,77,0.00,,,0.02,0.000000,,2013-02-08 09:52:00,
2013-02-08 02:01:00,41.0,34.0,-100.00,ESE,103,5.0,7.0,77,0.00,,,0.02,0.000000,,2013-02-08 10:01:00,
2013-02-08 02:11:00,41.0,34.0,-100.00,ESE,103,5.0,7.0,77,0.00,,,0.02,0.000000,,2013-02-08 10:11:00,
2013-02-08 02:32:00,39.0,35.0,-100.00,East,92,2.0,6.0,84,0.00,,,0.02,0.000000,,2013-02-08 10:32:00,
2013-02-08 02:42:00,39.0,35.0,-100.00,East,92,2.0,6.0,84,0.00,,,0.02,0.000000,,2013-02-08 10:42:00,
2013-02-08 02:52:00,39.0,35.0,-100.00,East,92,2.0,6.0,84,0.00,,,0.02,0.000000,,2013-02-08 10:52:00,
2013-02-08 03:01:00,39.0,35.0,-100.00,East,92,2.0,6.0,84,0.00,,,0.02,0.000000,,2013-02-08 11:01:00,
2013-02-08 03:11:00,39.0,35.0,-100.00,East,92,2.0,6.0,84,0.00,,,0.02,0.000000,,2013-02-08 11:11:00,
2013-02-08 03:32:00,35.0,32.0,-100.00,East,83,3.0,6.0,90,0.00,,,0.02,0.000000,,2013-02-08 11:32:00,
2013-02-08 03:42:00,35.0,32.0,-100.00,East,83,3.0,6.0,90,0.00,,,0.02,0.000000,,2013-02-08 11:42:00,
2013-02-08 03:52:00,35.0,32.0,-100.00,East,83,3.0,6.0,90,0.00,,,0.02,0.000000,,2013-02-08 11:52:00,
2013-02-08 04:01:00,35.0,32.0,-100.00,East,83,3.0,6.0,90,0.00,,,0.02,0.000000,,2013-02-08 12:01:00,
2013-02-08 04:11:00,35.0,32.0,-100.00,East,83,3.0,6.0,90,0.00,,,0.02,0.000000,,2013-02-08 12:11:00,
2013-02-08 04:33:00,33.0,32.0,-100.00,ENE,78,4.0,5.0,95,0.00,,,0.02,0.000000,,2013-02-08 12:33:00,
2013-02-08 04:42:00,33.0,32.0,-100.00,ENE,78,4.0,5.0,95,0.00,,,0.02,0.000000,,2013-02-08 12:42:00,
2013-02-08 04:52:00,33.0,32.0,-100.00,ENE,78,4.0,5.0,95,0.00,,,0.02,0.000000,,2013-02-08 12:52:00,
2013-02-08 05:01:00,33.0,32.0,-100.00,ENE,78,4.0,5.0,95,0.00,,,0.02,0.000000,,2013-02-08 13:01:00,
2013-02-08 05:11:00,33.0,32.0,-100.00,ENE,78,4.0,5.0,95,0.00,,,0.02,0.000000,,2013-02-08 13:11:00,
2013-02-08 05:32:00,35.0,34.0,-100.00,ESE,105,2.0,5.0,95,0.00,,,0.02,0.000000,,2013-02-08 13:32:00,
2013-02-08 05:42:00,35.0,34.0,-100.00,ESE,105,2.0,5.0,95,0.00,,,0.02,0.000000,,2013-02-08 13:42:00,
2013-02-08 05:52:00,35.0,34.0,-100.00,ESE,105,2.0,5.0,95,0.00,,,0.02,0.000000,,2013-02-08 13:52:00,
2013-02-08 06:01:00,35.0,34.0,-100.00,ESE,105,2.0,5.0,95,0.00,,,0.02,0.000000,,2013-02-08 14:01:00,
2013-02-08 06:11:00,35.0,34.0,-100.00,ESE,105,2.0,5.0,95,0.00,,,0.02,0.000000,,2013-02-08 14:11:00,
2013-02-08 06:42:00,37.0,35.0,-100.00,SE,138,1.0,4.0,94,0.00,,,0.02,0.000000,,2013-02-08 14:42:00,
2013-02-08 06:52:00,37.0,35.0,-100.00,SE,138,1.0,4.0,94,0.00,,,0.02,0.000000,,2013-02-08 14:52:00,
2013-02-08 07:01:00,37.0,35.0,-100.00,SE,138,1.0,4.0,94,0.00,,,0.02,0.000000,,2013-02-08 15:01:00,
2013-02-08 07:11:00,37.0,35.0,-100.00,SE,138,1.0,4.0,94,0.00,,,0.02,0.000000,,2013-02-08 15:11:00,
2013-02-08 07:32:00,34.0,33.0,-100.00,East,86,4.0,5.0,95,0.00,,,0.02,1.000000,,2013-02-08 15:32:00,
2013-02-08 07:42:00,34.0,33.0,-100.00,East,86,4.0,5.0,95,0.00,,,0.02,1.000000,,2013-02-08 15:42:00,
2013-02-08 07:52:00,34.0,33.0,-100.00,East,86,4.0,5.0,95,0.00,,,0.02,1.000000,,2013-02-08 15:52:00,
2013-02-08 08:01:00,34.0,33.0,-100.00,East,86,4.0,5.0,95,0.00,,,0.02,1.000000,,2013-02-08 16:01:00,
2013-02-08 08:11:00,34.0,33.0,-100.00,East,86,4.0,5.0,95,0.00,,,0.02,1.000000,,2013-02-08 16:11:00,
2013-02-08 08:32:00,39.0,36.0,-100.00,NNE,30,2.0,5.0,88,0.00,,,0.02,86.000000,,2013-02-08 16:32:00,
2013-02-08 08:42:00,39.0,36.0,-100.00,NNE,30,2.0,5.0,88,0.00,,,0.02,86.000000,,2013-02-08 16:42:00,
2013-02-08 08:52:00,39.0,36.0,-100.00,NNE,30,2.0,5.0,88,0.00,,,0.02,86.000000,,2013-02-08 16:52:00,
2013-02-08 09:03:00,39.0,36.0,-100.00,NNE,30,2.0,5.0,88,0.00,,,0.02,86.000000,,2013-02-08 17:03:00,
2013-02-08 09:11:00,39.0,36.0,-100.00,NNE,30,2.0,5.0,88,0.00,,,0.02,86.000000,,2013-02-08 17:11:00,
2013-02-08 09:33:00,42.0,36.0,-100.00,NW,312,4.0,5.0,79,0.00,,,0.02,212.000000,,2013-02-08 17:33:00,
2013-02-08 09:42:00,42.0,36.0,-100.00,NW,312,4.0,5.0,79,0.00,,,0.02,212.000000,,2013-02-08 17:42:00,
2013-02-08 09:52:00,42.0,36.0,-100.00,NW,312,4.0,5.0,79,0.00,,,0.02,212.000000,,2013-02-08 17:52:00,
2013-02-08 10:01:00,42.0,36.0,-100.00,NW,312,4.0,5.0,79,0.00,,,0.02,212.000000,,2013-02-08 18:01:00,
2013-02-08 10:11:00,42.0,36.0,-100.00,NW,312,4.0,5.0,79,0.00,,,0.02,212.000000,,2013-02-08 18:11:00,
2013-02-08 10:44:00,47.0,38.0,-100.00,WNW,291,5.0,10.0,72,0.00,,,0.02,406.000000,,2013-02-08 18:44:00,
2013-02-08 10:52:00,47.0,38.0,-100.00,WNW,291,5.0,10.0,72,0.00,,,0.02,406.000000,,2013-02-08 18:52:00,
2013-02-08 11:01:00,47.0,38.0,-100.00,WNW,291,5.0,10.0,72,0.00,,,0.02,406.000000,,2013-02-08 19:01:00,
2013-02-08 11:11:00,47.0,38.0,-100.00,WNW,291,5.0,10.0,72,0.00,,,0.02,406.000000,,2013-02-08 19:11:00,
2013-02-08 11:42:00,49.0,40.0,-100.00,NW,304,6.0,13.0,71,0.00,,,0.01,540.000000,,2013-02-08 19:42:00,
2013-02-08 11:52:00,49.0,40.0,-100.00,NW,304,6.0,13.0,71,0.00,,,0.01,540.000000,,2013-02-08 19:52:00,
2013-02-08 12:01:00,49.0,40.0,-100.00,NW,304,6.0,13.0,71,0.00,,,0.01,540.000000,,2013-02-08 20:01:00,
2013-02-08 12:11:00,49.0,40.0,-100.00,NW,304,6.0,13.0,71,0.00,,,0.01,540.000000,,2013-02-08 20:11:00,
2013-02-08 12:42:00,52.0,39.0,-100.00,NW,311,6.0,11.0,61,0.00,,,0.00,604.000000,,2013-02-08 20:42:00,
2013-02-08 12:52:00,52.0,39.0,-100.00,NW,311,6.0,11.0,61,0.00,,,0.00,604.000000,,2013-02-08 20:52:00,
2013-02-08 13:01:00,52.0,39.0,-100.00,NW,311,6.0,11.0,61,0.00,,,0.00,604.000000,,2013-02-08 21:01:00,
2013-02-08 13:11:00,52.0,39.0,-100.00,NW,311,6.0,11.0,61,0.00,,,0.00,604.000000,,2013-02-08 21:11:00,
2013-02-08 13:42:00,56.0,37.0,-100.00,NW,320,6.0,14.0,49,0.00,,,0.00,581.000000,,2013-02-08 21:42:00,
2013-02-08 13:52:00,56.0,37.0,-100.00,NW,320,6.0,14.0,49,0.00,,,0.00,581.000000,,2013-02-08 21:52:00,
2013-02-08 14:01:00,56.0,37.0,-100.00,NW,320,6.0,14.0,49,0.00,,,0.00,581.000000,,2013-02-08 22:01:00,
2013-02-08 14:11:00,56.0,37.0,-100.00,NW,320,6.0,14.0,49,0.00,,,0.00,581.000000,,2013-02-08 22:11:00,
2013-02-08 14:42:00,57.0,30.0,-100.00,NW,310,9.0,17.0,36,0.00,,,0.00,573.000000,,2013-02-08 22:42:00,
2013-02-08 14:52:00,57.0,30.0,-100.00,NW,310,9.0,17.0,36,0.00,,,0.00,573.000000,,2013-02-08 22:52:00,
2013-02-08 15:01:00,57.0,30.0,-100.00,NW,310,9.0,17.0,36,0.00,,,0.00,573.000000,,2013-02-08 23:01:00,
2013-02-08 15:11:00,57.0,30.0,-100.00,NW,310,9.0,17.0,36,0.00,,,0.00,573.000000,,2013-02-08 23:11:00,
2013-02-08 15:32:00,58.0,32.0,-100.00,NW,317,10.0,22.0,37,0.00,,,0.00,456.000000,,2013-02-08 23:32:00,
2013-02-08 15:42:00,58.0,32.0,-100.00,NW,317,10.0,22.0,37,0.00,,,0.00,456.000000,,2013-02-08 23:42:00,
2013-02-08 15:52:00,58.0,32.0,-100.00,NW,317,10.0,22.0,37,0.00,,,0.00,456.000000,,2013-02-08 23:52:00,
2013-02-08 16:01:00,58.0,32.0,-100.00,NW,317,10.0,22.0,37,0.00,,,0.00,456.000000,,2013-02-09 00:01:00,
2013-02-08 16:11:00,58.0,32.0,-100.00,NW,317,10.0,22.0,37,0.00,,,0.00,456.000000,,2013-02-09 00:11:00,
2013-02-08 16:32:00,57.0,29.0,-100.00,NW,320,11.0,20.0,34,0.00,,,0.00,315.000000,,2013-02-09 00:32:00,
2013-02-08 16:42:00,57.0,29.0,-100.00,NW,320,11.0,20.0,34,0.00,,,0.00,315.000000,,2013-02-09 00:42:00,
2013-02-08 16:52:00,57.0,29.0,-100.00,NW,320,11.0,20.0,34,0.00,,,0.00,315.000000,,2013-02-09 00:52:00,
2013-02-08 17:01:00,57.0,29.0,-100.00,NW,320,11.0,20.0,34,0.00,,,0.00,315.000000,,2013-02-09 01:01:00,
2013-02-08 17:11:00,57.0,29.0,-100.00,NW,320,11.0,20.0,34,0.00,,,0.00,315.000000,,2013-02-09 01:11:00,
2013-02-08 17:32:00,54.0,30.0,-100.00,NW,317,9.0,19.0,39,0.00,,,0.00,141.000000,,2013-02-09 01:32:00,
2013-02-08 17:42:00,54.0,30.0,-100.00,NW,317,9.0,19.0,39,0.00,,,0.00,141.000000,,2013-02-09 01:42:00,
2013-02-08 17:52:00,54.0,30.0,-100.00,NW,317,9.0,19.0,39,0.00,,,0.00,141.000000,,2013-02-09 01:52:00,
2013-02-08 18:01:00,54.0,30.0,-100.00,NW,317,9.0,19.0,39,0.00,,,0.00,141.000000,,2013-02-09 02:01:00,
2013-02-08 18:11:00,54.0,30.0,-100.00,NW,317,9.0,19.0,39,0.00,,,0.00,141.000000,,2013-02-09 02:11:00,
2013-02-08 18:42:00,49.0,29.0,-100.00,NNW,347,5.0,17.0,46,0.00,,,0.00,10.000000,,2013-02-09 02:42:00,
2013-02-08 18:52:00,49.0,29.0,-100.00,NNW,347,5.0,17.0,46,0.00,,,0.00,10.000000,,2013-02-09 02:52:00,
2013-02-08 19:01:00,49.0,29.0,-100.00,NNW,347,5.0,17.0,46,0.00,,,0.00,10.000000,,2013-02-09 03:01:00,
2013-02-08 19:11:00,49.0,29.0,-100.00,NNW,347,5.0,17.0,46,0.00,,,0.00,10.000000,,2013-02-09 03:11:00,
2013-02-08 19:32:00,47.0,28.0,-100.00,NNW,330,7.0,11.0,48,0.00,,,0.00,0.000000,,2013-02-09 03:32:00,
2013-02-08 19:42:00,47.0,28.0,-100.00,NNW,330,7.0,11.0,48,0.00,,,0.00,0.000000,,2013-02-09 03:42:00,
2013-02-08 19:52:00,47.0,28.0,-100.00,NNW,330,7.0,11.0,48,0.00,,,0.00,0.000000,,2013-02-09 03:52:00,
2013-02-08 20:02:00,47.0,28.0,-100.00,NNW,330,7.0,11.0,48,0.00,,,0.00,0.000000,,2013-02-09 04:02:00,
2013-02-08 20:11:00,47.0,28.0,-100.00,NNW,330,7.0,11.0,48,0.00,,,0.00,0.000000,,2013-02-09 04:11:00,
2013-02-08 20:32:00,43.0,27.0,-100.00,ESE,114,0.0,9.0,52,0.00,,,0.00,0.000000,,2013-02-09 04:32:00,
2013-02-08 20:42:00,43.0,27.0,-100.00,ESE,114,0.0,9.0,52,0.00,,,0.00,0.000000,,2013-02-09 04:42:00,
2013-02-08 20:52:00,43.0,27.0,-100.00,ESE,114,0.0,9.0,52,0.00,,,0.00,0.000000,,2013-02-09 04:52:00,
2013-02-08 21:02:00,43.0,27.0,-100.00,ESE,114,0.0,9.0,52,0.00,,,0.00,0.000000,,2013-02-09 05:02:00,
2013-02-08 21:11:00,43.0,27.0,-100.00,ESE,114,0.0,9.0,52,0.00,,,0.00,0.000000,,2013-02-09 05:11:00,
2013-02-08 21:32:00,39.0,26.0,-100.00,North,1,2.0,4.0,59,0.00,,,0.00,0.000000,,2013-02-09 05:32:00,
2013-02-08 21:42:00,39.0,26.0,-100.00,North,1,2.0,4.0,59,0.00,,,0.00,0.000000,,2013-02-09 05:42:00,
2013-02-08 21:52:00,39.0,26.0,-100.00,North,1,2.0,4.0,59,0.00,,,0.00,0.000000,,2013-02-09 05:52:00,
2013-02-08 22:01:00,39.0,26.0,-100.00,North,1,2.0,4.0,59,0.00,,,0.00,0.000000,,2013-02-09 06:01:00,
2013-02-08 22:11:00,39.0,26.0,-100.00,North,1,2.0,4.0,59,0.00,,,0.00,0.000000,,2013-02-09 06:11:00,
2013-02-08 22:32:00,37.0,27.0,-100.00,East,81,1.0,4.0,66,0.00,,,0.00,0.000000,,2013-02-09 06:32:00,
2013-02-08 22:42:00,37.0,27.0,-100.00,East,81,1.0,4.0,66,0.00,,,0.00,0.000000,,2013-02-09 06:42:00,
2013-02-08 22:52:00,37.0,27.0,-100.00,East,81,1.0,4.0,66,0.00,,,0.00,0.000000,,2013-02-09 06:52:00,
2013-02-08 23:01:00,37.0,27.0,-100.00,East,81,1.0,4.0,66,0.00,,,0.00,0.000000,,2013-02-09 07:01:00,
2013-02-08 23:11:00,37.0,27.0,-100.00,East,81,1.0,4.0,66,0.00,,,0.00,0.000000,,2013-02-09 07:11:00,
2013-02-08 23:42:00,40.0,23.0,-100.00,NE,44,4.0,6.0,50,0.00,,,0.00,0.000000,,2013-02-09 07:42:00,
2013-02-08 23:52:00,40.0,23.0,-100.00,NE,44,4.0,6.0,50,0.00,,,0.00,0.000000,,2013-02-09 07:52:00,